This demonstration page uses our WeatherBlox Daily Observations layout. Learn more.

Hourly Observations for October 17, 2016

Temp ( °F °C ) Dew Point ( °F °C ) Humidity (%) Winds ( mph kmh ) Pressure ( in mb ) Visibility ( mi km ) Precip ( " mm )
12:15 am 00:15 Clear 60 15.8 51 10.7 72 72 N 9 15 29.59 1002 10 16.09344 0 0
12:35 am 00:35 Clear 61 16 50 9.8 67 67 N 9 15 29.56 1001 10 16.09344 0 0
12:55 am 00:55 Clear 60 15.7 49 9.6 67 67 NNE 8 13 29.53 1000 10 16.09344 0 0
1:15 am 01:15 Clear 58 14.5 49 9.5 72 72 NNE 8 13 29.56 1001 10 16.09344 0 0
1:35 am 01:35 Clear 56 13.2 48 9.1 76 76 NE 6 9 29.53 1000 10 16.09344 0 0
1:55 am 01:55 Clear 52 11.1 47 8.4 84 84 NE 7 11 29.56 1001 10 16.09344 0 0
2:15 am 02:15 Clear 52 11.2 48 9 86 86 ENE 5 7 29.56 1001 10 16.09344 0 0
2:35 am 02:35 Clear 54 12.3 51 10.3 88 88 E 8 13 29.5 999 10 16.09344 0 0
2:55 am 02:55 Clear 56 13.5 51 10.5 82 82 E 8 13 29.5 999 10 16.09344 0 0
3:15 am 03:15 Clear 55 12.9 51 10.3 84 84 E 7 11 29.5 999 10 16.09344 0 0
3:35 am 03:35 Clear 52 11.2 48 9.1 87 87 ENE 8 13 29.47 998 10 16.09344 0 0
3:55 am 03:55 Clear 53 11.7 50 10 89 89 NE 7 11 29.47 998 10 16.09344 0 0
4:15 am 04:15 Clear 52 11 49 9.4 90 90 NNE 3 6 29.5 999 10 16.09344 0 0
4:35 am 04:35 Clear 51 10.5 48 9 91 91 NE 6 9 29.47 998 10 16.09344 0 0
4:55 am 04:55 Clear 50 10.2 48 8.8 91 91 N 3 6 29.47 998 10 16.09344 0 0
5:15 am 05:15 Clear 50 10 48 8.9 93 93 N 3 6 29.47 998 7 11.265408 0 0
5:35 am 05:35 Clear 51 10.7 50 9.8 94 94 NNW 5 7 29.47 998 7 11.265408 0 0
5:55 am 05:55 Clear 52 10.9 49 9.7 92 92 NNE 5 7 29.41 996 10 16.09344 0 0
6:15 am 06:15 Clear 52 11.3 50 10 92 92 NNW 6 9 29.44 997 10 16.09344 0 0
6:35 am 06:35 Clear 51 10.8 49 9.3 91 91 WNW 5 7 29.47 998 10 16.09344 0 0
6:55 am 06:55 Clear 50 10.1 47 8.4 89 89 NW 3 6 29.44 997 10 16.09344 0 0
7:15 am 07:15 Mostly Cloudy 50 10 46 7.7 86 86 NW 6 9 29.44 997 10 16.09344 0 0
7:35 am 07:35 Cloudy 50 10 46 7.9 87 87 NW 6 9 29.44 997 10 16.09344 0 0
7:55 am 07:55 Cloudy 51 10.3 46 7.8 85 85 NW 5 7 29.44 997 10 16.09344 0 0
8:15 am 08:15 Cloudy 51 10.8 46 7.6 81 81 NNW 5 7 29.38 995 10 16.09344 0 0
8:35 am 08:35 Cloudy 52 11.1 46 7.8 80 80 NNW 3 6 29.38 995 10 16.09344 0 0
8:55 am 08:55 Cloudy 53 11.5 45 7.2 75 75 Calm 29.38 995 10 16.09344 0 0
9:15 am 09:15 Mostly Cloudy 53 11.5 44 6.8 73 73 Calm 29.38 995 10 16.09344 0 0
9:35 am 09:35 Sunny 53 11.5 43 6 69 69 Calm 29.38 995 10 16.09344 0 0
9:55 am 09:55 Sunny 54 12.4 42 5.7 64 64 NW 5 7 29.38 995 10 16.09344 0 0
10:15 am 10:15 Sunny 57 13.7 42 5.4 58 58 NW 6 9 29.41 996 10 16.09344 0 0
10:35 am 10:35 Sunny 57 14.1 42 5.4 56 56 NW 3 6 29.38 995 10 16.09344 0 0
10:55 am 10:55 Sunny 58 14.7 43 6.1 57 57 WNW 3 6 29.38 995 10 16.09344 0 0
11:15 am 11:15 Sunny 60 15.4 43 6.3 55 55 NW 5 7 29.38 995 10 16.09344 0 0
11:35 am 11:35 Sunny 62 16.6 44 6.5 52 52 WNW 8 13 29.38 995 10 16.09344 0 0
11:55 am 11:55 Sunny 64 17.7 45 7.1 50 50 NNW 6 9 29.35 994 10 16.09344 0 0
12:15 pm 12:15 Sunny 65 18.6 46 7.7 49 49 W 5 7 29.32 993 10 16.09344 0 0
12:35 pm 12:35 Sunny 67 19.6 46 7.9 47 47 W 3 6 29.32 993 10 16.09344 0 0
12:55 pm 12:55 Sunny 70 21 47 8.2 44 44 SW 5 7 29.29 992 10 16.09344 0 0
1:15 pm 13:15 Sunny 72 22.3 48 9 43 43 WSW 6 9 29.29 992 10 16.09344 0 0
1:35 pm 13:35 Sunny 73 23 48 8.7 40 40 WSW 7 11 29.29 992 10 16.09344 0 0
1:55 pm 13:55 Sunny 75 23.9 48 9 39 39 WSW 8 13 29.29 992 10 16.09344 0 0
2:15 pm 14:15 Sunny 75 23.8 47 8.3 37 37 W 8 13 29.29 992 10 16.09344 0 0
2:35 pm 14:35 Sunny 76 24.5 45 7 33 33 W 5 7 29.29 992 10 16.09344 0 0
2:55 pm 14:55 Sunny 78 25.3 44 6.7 30 30 W 6 9 29.26 991 10 16.09344 0 0
3:15 pm 15:15 Sunny 80 26.5 41 5.2 26 26 W 9 15 29.29 992 10 16.09344 0 0
3:35 pm 15:35 Sunny 81 27.1 39 4.1 23 23 W 8 13 29.29 992 10 16.09344 0 0
3:55 pm 15:55 Sunny 82 27.8 37 2.6 20 20 NW 13 20 29.29 992 10 16.09344 0 0
4:15 pm 16:15 Sunny 82 27.6 37 2.7 20 20 NW 12 19 29.29 992 10 16.09344 0 0
4:35 pm 16:35 Sunny 81 27.1 35 1.7 19 19 NW 14 22 29.29 992 10 16.09344 0 0
4:55 pm 16:55 Sunny 81 27 31 -0.3 17 17 WNW 15 24 29.32 993 10 16.09344 0 0
5:15 pm 17:15 Sunny 80 26.7 32 -0.2 17 17 WNW 13 20 29.32 993 10 16.09344 0 0
5:35 pm 17:35 Sunny 80 26.5 32 -0.2 17 17 NW 9 15 29.35 994 10 16.09344 0 0
5:55 pm 17:55 Sunny 79 26.1 32 0.2 18 18 WNW 5 7 29.35 994 10 16.09344 0 0
6:15 pm 18:15 Sunny 78 25.7 34 1 20 20 WNW 12 19 29.35 994 10 16.09344 0 0
6:35 pm 18:35 Sunny 77 25.1 32 0.1 19 19 WNW 12 19 29.41 996 10 16.09344 0 0
6:55 pm 18:55 Clear 74 23.6 33 0.7 22 22 WNW 9 15 29.44 997 10 16.09344 0 0
7:15 pm 19:15 Clear 73 22.6 35 1.4 25 25 WNW 17 28 29.5 999 10 16.09344 0 0
7:35 pm 19:35 Clear 70 21.2 34 1.2 27 27 WNW 15 24 29.5 999 10 16.09344 0 0
7:55 pm 19:55 Clear 68 20.2 34 1.3 29 29 WNW 13 20 29.53 1000 10 16.09344 0 0
8:15 pm 20:15 Clear 67 19.2 34 1.2 30 30 W 9 15 29.56 1001 10 16.09344 0 0
8:35 pm 20:35 Clear 65 18.3 34 1 31 31 W 9 15 29.59 1002 10 16.09344 0 0
8:55 pm 20:55 Clear 62 16.7 34 1 35 35 W 9 15 29.59 1002 10 16.09344 0 0
9:15 pm 21:15 Clear 63 17.3 34 1 33 33 W 12 19 29.59 1002 10 16.09344 0 0
9:35 pm 21:35 Clear 61 16 33 0.7 36 36 W 14 22 29.65 1004 10 16.09344 0 0
9:55 pm 21:55 Clear 61 16.3 32 0 33 33 WNW 13 20 29.65 1004 10 16.09344 0 0
10:15 pm 22:15 Clear 60 15.7 30 -0.9 32 32 WNW 8 13 29.65 1004 10 16.09344 0 0
10:35 pm 22:35 Clear 60 15.7 29 -1.5 31 31 WNW 10 17 29.68 1005 10 16.09344 0 0
10:55 pm 22:55 Clear 58 14.5 29 -1.5 33 33 WNW 12 19 29.68 1005 10 16.09344 0 0
11:15 pm 23:15 Clear 58 14.3 30 -1.3 34 34 WNW 7 11 29.68 1005 10 16.09344 0 0
11:35 pm 23:35 Clear 56 13.5 30 -1.2 36 36 WNW 8 13 29.74 1007 10 16.09344 0 0
11:55 pm 23:55 Clear 55 13 30 -1 38 38 WNW 7 11 29.74 1007 10 16.09344 0 0

Powered by AerisWeather